Location: Newark
(34.1333°N, 7.9667°W)
Time: 10:50:04
(UTC+00:00)

Transit 2A - Visible Passes

Search period start: 15 June 2021 00:00
Search period end: 25 June 2021 00:00
Orbit: 601 x 958 km, 66.7° (Epoch: 14 June)

Date Brightness Start Highest point End Pass type
(mag) Time Alt. Az. Time Alt. Az. Time Alt. Az.
15 Jun 8.8 01:54:02 10° NNE 01:56:37 14° NE 01:59:18 10° E visible
15 Jun 5.9 03:35:03 10° NNW 03:40:08 74° WSW 03:45:46 10° SSE visible
16 Jun 6.2 03:00:53 10° NNW 03:05:58 74° ENE 03:11:36 10° SSE visible
16 Jun 7.8 04:46:50 10° W 04:48:40 12° WSW 04:50:34 10° SW visible
17 Jun 6.8 02:26:51 10° NNW 02:31:45 48° ENE 02:36:28 13° SE visible
17 Jun 7.4 04:11:02 10° WNW 04:14:39 19° WSW 04:16:44 15° SW visible
18 Jun 7.5 01:52:57 10° N 01:57:31 32° ENE 02:00:52 18° ESE visible
18 Jun 6.9 03:36:07 10° NW 03:40:34 29° WSW 03:41:13 28° WSW visible
19 Jun 8.1 01:19:16 10° N 01:23:13 22° NE 01:25:58 16° E visible
19 Jun 6.4 03:01:33 10° NW 03:06:21 44° WSW 03:06:21 44° WSW visible
20 Jun 8.5 00:45:53 10° NNE 00:48:51 15° NE 00:51:26 11° E visible
20 Jun 6.1 02:27:12 10° NNW 02:31:50 64° W 02:31:50 64° W visible
21 Jun 8.8 00:13:56 10° NE 00:14:24 10° NE 00:14:53 10° NE visible
21 Jun 6.2 01:53:00 10° NNW 01:57:35 70° N 01:57:35 70° N visible
22 Jun 6.7 01:18:56 10° NNW 01:23:28 51° NE 01:23:28 51° NE visible
22 Jun 8.2 03:03:21 10° WNW 03:03:54 12° WNW 03:03:54 12° WNW visible
23 Jun 7.3 00:45:01 10° N 00:49:30 35° NE 00:49:30 35° NE visible
23 Jun 7.9 02:28:22 10° NW 02:29:56 17° WNW 02:29:56 17° WNW visible
24 Jun 7.8 00:11:16 10° N 00:15:26 24° NE 00:15:38 24° ENE visible
24 Jun 7.6 01:53:45 10° NW 01:56:05 25° WNW 01:56:05 25° WNW visible
24 Jun 8.2 23:37:47 10° NNE 23:41:05 17° NE 23:41:51 16° ENE visible
